User: anonymous   Login
Location: Unspecified
(49.2170°N, 0.0000°E)
Time: 09:14:41
(UTC+00:00)
Language:

A-11 Canister half - Orbit

View from above orbital plane
View from above orbital plane
View from above satellite
View from above satellite

Ground track
Ground track

The orbit data is extracted from the following two-line orbital elements,

1 00051U 60009C   21023.71814819 -.00000097  00000-0 -10554-3 0  9994
2 00051  47.2147  25.9766 0104254  98.2294 263.0333 12.18270428690941
Epoch (UTC): 23 January 2021 17:14:08
Eccentricity: 0.0104254
inclination: 47.2147°
perigee height: 1517 km
apogee height: 1683 km
right ascension of ascending node: 25.9766°
argument of perigee: 98.2294°
revolutions per day: 12.18270428
mean anomaly at epoch: 263.0333°
orbit number at epoch: 69094

The dashed part of the orbit path shows where the satellite is in the earth's shadow,  

DLR